GW4309 Weather Reports


Display with metric or nautical units.
time (UTC)temp
F
wind
direction
speed
MPH
gust
MPH
rain 1hr
in
rain 24hr
in
rain mn
in
humidity
%
barometer
mb
20260507223137 58 270 0.0 0.0 0.00 0.02 0.02 33 1003.0
20260507222633 59 258 1.0 1.0 0.00 0.02 0.02 34 1002.8
20260507222130 59 278 1.0 1.0 0.00 0.02 0.02 32 1002.8
20260507221626 59 332 3.0 3.0 0.00 0.02 0.02 32 1002.8
20260507221122 59 295 1.0 1.0 0.00 0.02 0.02 34 1002.7
20260507220620 59 338 2.0 2.0 0.00 0.02 0.02 37 1002.8
20260507220117 59 265 2.0 3.0 0.00 0.02 0.02 33 1002.8
20260507215613 59 279 2.0 2.0 0.00 0.02 0.02 35 1003.0
20260507215111 59 258 1.0 1.0 0.00 0.02 0.02 34 1002.7
20260507214608 60 270 3.0 3.0 0.00 0.02 0.02 36 1002.8
20260507214104 60 247 1.0 1.0 0.00 0.02 0.02 36 1002.9
20260507213600 61 243 0.0 1.0 0.00 0.02 0.02 33 1002.8
20260507213058 60 270 2.0 3.0 0.00 0.02 0.02 34 1002.8
20260507212554 60 277 2.0 3.0 0.00 0.02 0.02 34 1003.1
20260507212051 60 273 3.0 3.0 0.00 0.02 0.02 35 1002.9
20260507211547 60 261 1.0 1.0 0.00 0.02 0.02 34 1002.7
20260507211043 60 255 2.0 2.0 0.00 0.02 0.02 38 1002.8
20260507210541 60 284 0.0 1.0 0.00 0.02 0.02 37 1002.8
20260507210038 61 298 2.0 2.0 0.00 0.02 0.02 34 1002.8
20260507205534 60 346 3.0 3.0 0.00 0.02 0.02 35 1002.7
20260507205031 59 299 2.0 2.0 0.00 0.02 0.02 35 1002.6
20260507204527 59 250 2.0 2.0 0.00 0.02 0.02 36 1002.6
20260507204025 60 255 2.0 2.0 0.00 0.02 0.02 34 1002.7
20260507203522 60 206 0.0 1.0 0.00 0.02 0.02 34 1002.2
20260507203020 59 256 0.0 0.0 0.00 0.02 0.02 39 1002.5
20260507202515 59 52 2.0 3.0 0.00 0.02 0.02 36 1002.5
20260507202012 60 265 0.0 1.0 0.00 0.02 0.02 36 1002.5
20260507201507 59 284 1.0 1.0 0.00 0.02 0.02 36 1002.4
20260507201003 58 323 2.0 2.0 0.00 0.02 0.02 35 1002.5
20260507200459 58 259 3.0 6.0 0.00 0.02 0.02 35 1002.8
20260507195955 58 261 2.0 3.0 0.00 0.02 0.02 36 1002.5
20260507195453 58 290 1.0 2.0 0.00 0.02 0.02 37 1002.5
20260507194950 61 320 2.0 2.0 0.00 0.02 0.02 34 1002.5
20260507194446 61 231 4.0 5.0 0.00 0.02 0.02 34 1002.6
20260507193942 61 285 1.0 1.0 0.00 0.02 0.02 35 1002.5
20260507193440 61 264 1.0 1.0 0.00 0.02 0.02 35 1002.6
20260507192936 60 293 3.0 5.0 0.00 0.02 0.02 37 1002.8
20260507192432 59 251 1.0 1.0 0.00 0.02 0.02 35 1002.8
20260507191930 60 292 0.0 0.0 0.00 0.02 0.02 34 1002.9
20260507191425 61 243 2.0 2.0 0.00 0.02 0.02 37 1003.0
20260507190922 60 225 4.0 7.0 0.00 0.02 0.02 34 1002.9
20260507190420 60 268 3.0 3.0 0.00 0.02 0.02 35 1003.1
20260507185919 61 323 5.0 6.0 0.00 0.02 0.02 34 1003.0
20260507185416 60 283 5.0 6.0 0.00 0.02 0.02 35 1003.0
20260507184913 60 23 0.0 0.0 0.00 0.02 0.02 37 1003.0
20260507184410 60 314 3.0 5.0 0.00 0.02 0.02 38 1002.8
20260507183907 59 303 4.0 7.0 0.00 0.02 0.02 38 1003.2
20260507183404 61 255 3.0 5.0 0.00 0.02 0.02 37 1003.2
20260507182902 60 312 3.0 5.0 0.00 0.02 0.02 39 1002.9
20260507182357 58 279 2.0 3.0 0.00 0.02 0.02 41 1002.9
20260507181854 58 266 4.0 6.0 0.00 0.02 0.02 40 1003.1
20260507181349 59 304 2.0 2.0 0.00 0.02 0.02 42 1003.2
20260507180847 59 203 4.0 5.0 0.00 0.02 0.02 43 1003.3
20260507180343 59 225 4.0 5.0 0.00 0.02 0.02 44 1003.2
20260507175839 60 331 3.0 3.0 0.00 0.02 0.02 48 1003.2
20260507175337 57 245 3.0 3.0 0.00 0.02 0.02 55 1003.0
20260507174834 57 273 3.0 5.0 0.00 0.02 0.02 54 1003.2
20260507174331 57 294 1.0 2.0 0.00 0.02 0.02 54 1003.3
20260507173829 59 310 1.0 2.0 0.00 0.02 0.02 51 1003.4
20260507173326 59 337 5.0 6.0 0.00 0.02 0.02 51 1003.1
20260507172822 59 256 2.0 2.0 0.00 0.02 0.02 54 1003.3
20260507172319 58 257 4.0 5.0 0.00 0.02 0.02 52 1003.3
20260507171814 58 0 4.0 5.0 0.00 0.02 0.02 54 1003.4
20260507171312 59 233 4.0 5.0 0.00 0.02 0.02 56 1003.2
20260507170809 57 260 4.0 6.0 0.00 0.02 0.02 56 1003.3
20260507170305 57 263 3.0 6.0 0.00 0.02 0.02 54 1003.3
20260507165801 58 290 3.0 3.0 0.00 0.02 0.02 52 1003.3
20260507165257 60 225 3.0 3.0 0.00 0.02 0.02 53 1003.3
20260507164753 58 242 1.0 2.0 0.00 0.02 0.02 56 1003.4
20260507164250 57 248 1.0 1.0 0.00 0.02 0.02 58 1003.4
20260507163748 58 267 3.0 3.0 0.00 0.02 0.02 56 1003.5
20260507163245 60 232 2.0 2.0 0.00 0.02 0.02 54 1003.7
20260507162741 59 241 2.0 2.0 0.00 0.02 0.02 56 1003.4
20260507162237 58 277 3.0 3.0 0.00 0.02 0.02 55 1003.6
20260507161734 59 296 3.0 5.0 0.00 0.02 0.02 55 1003.5
20260507161231 58 243 0.0 0.0 0.00 0.02 0.02 56 1003.6
20260507160726 57 292 0.0 1.0 0.00 0.02 0.02 58 1003.9
20260507160223 57 240 1.0 2.0 0.00 0.02 0.02 56 1003.8
20260507155719 57 237 1.0 1.0 0.00 0.02 0.02 55 1003.5
20260507155215 57 292 3.0 3.0 0.00 0.02 0.02 55 1003.9
20260507154712 59 216 2.0 2.0 0.00 0.02 0.02 52 1004.1
20260507154210 58 249 1.0 1.0 0.00 0.02 0.02 53 1003.8
20260507153707 58 296 2.0 3.0 0.00 0.02 0.02 53 1004.1
20260507153203 59 227 3.0 3.0 0.00 0.02 0.02 55 1004.0
20260507152659 59 294 1.0 1.0 0.00 0.02 0.02 56 1004.1
20260507152155 60 263 2.0 2.0 0.00 0.02 0.02 56 1004.2
20260507151651 59 249 1.0 1.0 0.00 0.02 0.02 59 1004.0
20260507151148 58 275 0.0 1.0 0.00 0.02 0.02 55 1004.0
20260507150645 58 252 1.0 1.0 0.00 0.02 0.02 58 1004.1
20260507150142 57 251 0.0 1.0 0.00 0.02 0.02 63 1004.2
20260507145637 56 272 1.0 2.0 0.00 0.02 0.02 60 1003.8
20260507145135 56 311 2.0 2.0 0.00 0.02 0.02 60 1004.0
20260507144631 57 270 1.0 1.0 0.00 0.02 0.02 57 1004.3
20260507144130 57 245 0.0 0.0 0.00 0.02 0.02 63 1004.3
20260507143626 56 254 0.0 0.0 0.00 0.02 0.02 61 1004.2
20260507143123 56 249 2.0 2.0 0.00 0.02 0.02 61 1004.2
20260507142619 56 254 3.0 3.0 0.00 0.02 0.02 62 1004.1
20260507142116 56 220 1.0 1.0 0.00 0.02 0.02 64 1004.5
20260507141612 56 244 1.0 1.0 0.00 0.02 0.02 68 1004.5
20260507141109 56 253 0.0 0.0 0.00 0.02 0.02 68 1004.5
20260507140605 54 338 0.0 2.0 0.00 0.02 0.02 70 1004.5
20260507135600 54 310 1.0 2.0 0.00 0.02 0.02 72 1004.8
20260507135057 54 212 2.0 2.0 0.00 0.02 0.02 69 1004.9
20260507134553 54 268 2.0 2.0 0.00 0.02 0.02 73 1004.6
20260507134049 54 238 3.0 3.0 0.00 0.02 0.02 73 1004.6
20260507133545 53 245 1.0 1.0 0.00 0.02 0.02 75 1004.7
20260507133043 53 260 3.0 3.0 0.00 0.02 0.02 75 1005.0
20260507132540 54 229 1.0 1.0 0.00 0.02 0.02 75 1004.9
20260507132036 53 221 1.0 1.0 0.00 0.02 0.02 73 1005.0
20260507131533 53 237 1.0 1.0 0.00 0.02 0.02 73 1005.0
20260507131031 52 296 1.0 1.0 0.00 0.02 0.02 77 1004.9
20260507130527 52 236 1.0 1.0 0.00 0.02 0.02 76 1004.9
20260507130026 51 279 0.0 0.0 0.00 0.02 0.02 77 1005.1
20260507125524 51 279 1.0 1.0 0.00 0.02 0.02 76 1005.1
20260507125021 51 295 0.0 0.0 0.00 0.02 0.02 75 1005.1
20260507124517 51 220 0.0 0.0 0.00 0.02 0.02 77 1005.0
20260507124015 51 304 1.0 1.0 0.00 0.02 0.02 80 1005.0
20260507123513 50 257 0.0 0.0 0.00 0.02 0.02 81 1005.1
20260507123010 50 298 1.0 1.0 0.00 0.02 0.02 84 1005.0
20260507122504 49 246 1.0 1.0 0.00 0.02 0.02 83 1005.3
20260507122001 49 261 1.0 1.0 0.00 0.02 0.02 84 1005.2
20260507121456 49 192 1.0 1.0 0.00 0.02 0.02 84 1005.4
20260507120953 49 258 0.0 1.0 0.00 0.02 0.02 89 1005.2
20260507120449 48 204 1.0 1.0 0.00 0.02 0.02 88 1005.3
20260507115946 48 213 1.0 2.0 0.00 0.02 0.02 89 1005.2
20260507115442 47 294 1.0 1.0 0.00 0.02 0.02 94 1005.2
20260507114938 46 240 0.0 0.0 0.00 0.02 0.02 97 1005.2
20260507114434 46 259 0.0 0.0 0.00 0.02 0.02 99 1005.3
20260507113932 45 265 0.0 0.0 0.00 0.02 0.02 99 1005.0
20260507113428 45 260 0.0 0.0 0.00 0.02 0.02 99 1005.1
20260507112926 45 289 0.0 0.0 0.00 0.02 0.02 99 1004.9
20260507112423 44 262 0.0 0.0 0.00 0.02 0.02 99 1005.3
20260507111920 44 251 0.0 0.0 0.00 0.02 0.02 99 1005.3
20260507111418 44 255 0.0 0.0 0.00 0.02 0.02 99 1005.2
20260507110914 44 259 0.0 0.0 0.00 0.02 0.02 99 1005.4
20260507110410 44 258 0.0 0.0 0.00 0.02 0.02 99 1005.5
20260507105907 44 251 0.0 0.0 0.00 0.02 0.02 99 1005.4
20260507105403 44 273 0.0 0.0 0.00 0.02 0.02 99 1005.6
20260507104900 44 251 0.0 0.0 0.00 0.02 0.02 99 1005.6
20260507104357 44 248 0.0 0.0 0.00 0.02 0.02 99 1005.8
20260507103853 44 249 0.0 0.0 0.00 0.02 0.02 99 1005.7
20260507103350 44 272 0.0 0.0 0.00 0.02 0.02 99 1005.3
20260507102846 44 248 0.0 0.0 0.00 0.02 0.02 99 1005.6
20260507102342 44 248 0.0 0.0 0.00 0.02 0.02 99 1005.6
20260507101839 44 256 0.0 0.0 0.00 0.02 0.02 99 1005.4
20260507101333 44 250 0.0 0.0 0.00 0.02 0.02 99 1005.6
20260507100831 44 248 0.0 0.0 0.00 0.02 0.02 99 1005.6
20260507100328 43 259 0.0 0.0 0.00 0.02 0.02 99 1005.6
20260507095827 43 248 0.0 0.0 0.00 0.02 0.02 99 1005.3
20260507095322 43 248 0.0 0.0 0.00 0.02 0.02 99 1005.1
20260507094820 43 252 0.0 0.0 0.00 0.02 0.02 99 1005.3
20260507094316 44 252 0.0 0.0 0.00 0.02 0.02 99 1005.0
20260507093813 43 252 0.0 0.0 0.00 0.02 0.02 99 1005.1
20260507093312 44 252 0.0 0.0 0.00 0.02 0.02 99 1004.8
20260507092809 44 257 0.0 0.0 0.00 0.02 0.02 99 1004.7
20260507092307 44 258 0.0 0.0 0.00 0.02 0.02 99 1004.3
20260507091802 44 264 0.0 0.0 0.00 0.02 0.02 99 1004.8
20260507091259 44 255 0.0 0.0 0.00 0.02 0.02 99 1004.9
20260507090759 44 258 0.0 0.0 0.00 0.02 0.02 99 1005.1
20260507090256 44 267 0.0 0.0 0.00 0.02 0.02 99 1004.9
20260507085753 45 257 0.0 0.0 0.00 0.02 0.02 99 1005.2
20260507085250 45 248 0.0 0.0 0.00 0.02 0.02 99 1005.0
20260507084747 45 239 0.0 0.0 0.00 0.02 0.02 99 1004.9
20260507084243 45 250 0.0 0.0 0.00 0.02 0.02 99 1005.0
20260507083741 45 254 0.0 0.0 0.00 0.02 0.02 99 1005.0
20260507083237 45 259 0.0 0.0 0.00 0.02 0.02 99 1005.2
20260507082733 45 269 0.0 0.0 0.00 0.02 0.02 99 1004.8
20260507082229 45 252 0.0 0.0 0.00 0.02 0.02 99 1005.3
20260507081726 45 258 0.0 0.0 0.00 0.02 0.02 99 1005.0
20260507081222 46 258 0.0 0.0 0.00 0.02 0.02 99 1004.9
20260507080719 46 258 0.0 0.0 0.00 0.02 0.02 99 1004.9
20260507080215 46 249 0.0 0.0 0.00 0.02 0.02 99 1004.7
20260507075711 46 252 0.0 0.0 0.00 0.02 0.02 99 1004.6
20260507075207 46 271 0.0 0.0 0.00 0.02 0.02 99 1004.5
20260507074703 46 274 0.0 0.0 0.00 0.02 0.02 99 1004.8
20260507074202 46 263 0.0 0.0 0.00 0.02 0.02 99 1004.5
20260507073658 46 260 0.0 0.0 0.00 0.02 0.02 99 1004.7
20260507073154 47 283 0.0 0.0 0.00 0.02 0.02 99 1004.8
20260507072652 47 257 0.0 0.0 0.00 0.02 0.02 99 1004.7
20260507072149 47 256 0.0 0.0 0.00 0.02 0.02 99 1004.6
20260507071647 47 247 0.0 0.0 0.00 0.02 0.02 99 1004.6
20260507071143 47 272 0.0 0.0 0.00 0.02 0.02 99 1004.5
20260507070640 47 259 0.0 0.0 0.00 0.02 0.02 99 1004.5
20260507070137 47 253 0.0 0.0 0.00 0.02 0.02 99 1004.7
20260507065633 47 246 0.0 0.0 0.00 0.02 0.02 99 1004.3
20260507065130 47 246 0.0 0.0 0.00 0.02 0.02 99 1004.2
20260507064628 47 251 0.0 0.0 0.00 0.02 0.02 99 1004.2
20260507064127 47 256 0.0 0.0 0.00 0.02 0.02 99 1004.0
20260507063624 48 257 0.0 0.0 0.00 0.02 0.02 99 1003.8
20260507063121 48 259 0.0 0.0 0.00 0.02 0.02 99 1004.1
20260507062617 48 252 0.0 0.0 0.00 0.02 0.02 99 1004.0
20260507062115 47 252 0.0 0.0 0.00 0.02 0.02 99 1003.9
20260507061613 48 257 0.0 0.0 0.00 0.02 0.02 99 1003.8
20260507061111 47 263 0.0 0.0 0.00 0.02 0.02 99 1004.0
20260507060608 47 258 0.0 0.0 0.00 0.02 0.02 99 1003.5
20260507060104 47 259 0.0 0.0 0.00 0.02 0.02 99 1003.8
20260507055600 48 256 0.0 0.0 0.00 0.02 0.02 99 1003.8
20260507055056 48 257 0.0 0.0 0.00 0.02 0.02 99 1003.6
20260507054552 48 259 0.0 0.0 0.00 0.02 0.02 99 1003.5
20260507054049 48 274 0.0 0.0 0.00 0.02 0.02 99 1003.4
20260507053547 48 272 0.0 0.0 0.00 0.02 0.02 99 1003.7
20260507053046 48 266 0.0 0.0 0.00 0.02 0.02 99 1003.5
20260507052543 48 256 0.0 0.0 0.00 0.02 0.02 99 1003.6
20260507052039 48 259 0.0 0.0 0.00 0.02 0.02 99 1003.4
20260507051537 48 257 0.0 0.0 0.00 0.02 0.02 99 1003.5
20260507051034 49 241 0.0 0.0 0.00 0.02 0.02 99 1003.4
20260507050530 49 252 0.0 0.0 0.00 0.02 0.02 99 1003.4
20260507050027 49 277 0.0 0.0 0.00 0.02 0.02 99 1003.4
20260507045524 49 232 0.0 0.0 0.00 0.02 0.02 99 1003.4
20260507045021 49 290 0.0 0.0 0.00 0.02 0.02 99 1003.3
20260507044518 49 279 0.0 0.0 0.00 0.02 0.02 99 1003.7
20260507044014 49 276 0.0 0.0 0.00 0.02 0.02 99 1003.6
20260507043510 50 254 0.0 0.0 0.05 0.02 0.02 99 1003.6
20260507043008 50 261 0.0 0.0 0.05 0.02 0.02 99 1003.2
20260507042503 50 307 0.0 0.0 0.00 0.01 0.01 99 1003.3
20260507041959 51 264 0.0 0.0 0.00 0.01 0.01 99 1003.5
20260507041456 51 236 0.0 0.0 0.00 0.01 0.01 99 1003.9
20260507040953 51 241 0.0 0.0 0.07 0.01 0.01 99 1003.9
20260507040449 51 270 0.0 0.0 0.12 0.01 0.01 99 1003.6
20260507035945 52 283 1.0 1.0 0.24 0.49 0.49 99 1003.5
20260507035442 52 254 0.0 0.0 0.31 0.49 0.49 99 1003.5
20260507034939 52 268 0.0 0.0 0.07 0.45 0.45 99 1003.5
20260507034435 53 268 0.0 0.0 0.00 0.44 0.44 99 1003.2
20260507033934 53 302 0.0 0.0 0.00 0.44 0.44 99 1002.8
20260507033431 53 235 0.0 0.0 0.00 0.44 0.44 99 1002.9
20260507032928 54 301 0.0 0.0 0.00 0.44 0.44 99 1003.0
20260507032425 54 284 0.0 0.0 0.05 0.44 0.44 99 1002.8
20260507031921 55 229 0.0 0.0 0.05 0.44 0.44 99 1002.7
20260507031418 56 213 0.0 0.0 0.00 0.43 0.43 99 1002.5
20260507030914 56 269 0.0 0.0 0.00 0.43 0.43 99 1002.3
20260507030412 56 256 0.0 0.0 0.00 0.43 0.43 99 1002.5
20260507025908 56 251 0.0 0.0 0.00 0.43 0.43 99 1002.4
20260507025406 56 255 0.0 0.0 0.00 0.43 0.43 99 1002.4
20260507024904 56 242 0.0 0.0 0.00 0.43 0.43 99 1002.3
20260507024400 56 229 0.0 0.0 0.00 0.43 0.43 99 1002.5
20260507023856 56 246 0.0 0.0 0.07 0.43 0.43 99 1002.2
20260507023353 56 251 0.0 0.0 0.07 0.43 0.43 99 1002.3
20260507022851 56 246 0.0 0.0 0.00 0.42 0.42 99 1002.4
20260507022347 56 245 0.0 0.0 0.00 0.42 0.42 99 1002.4
20260507021843 56 255 0.0 0.0 0.00 0.42 0.42 99 1002.3
20260507021338 56 255 0.0 0.0 0.00 0.42 0.42 99 1002.3
20260507020837 56 250 0.0 0.0 0.00 0.42 0.42 99 1002.1
20260507020333 56 238 0.0 0.0 0.00 0.42 0.42 99 1002.3
20260507015830 56 238 0.0 0.0 0.00 0.42 0.42 99 1002.2
20260507015328 56 235 0.0 0.0 0.00 0.42 0.42 99 1002.1
20260507014825 56 227 0.0 0.0 0.00 0.42 0.42 99 1002.5
20260507014321 56 242 0.0 0.0 0.00 0.42 0.42 99 1002.3
20260507013818 56 244 0.0 0.0 0.00 0.42 0.42 99 1002.6
20260507013315 56 244 0.0 0.0 0.00 0.42 0.42 99 1002.6
20260507012813 56 229 0.0 0.0 0.00 0.42 0.42 99 1002.5
20260507012308 56 222 0.0 0.0 0.00 0.42 0.42 99 1002.6
20260507011806 56 229 0.0 0.0 0.00 0.42 0.42 99 1002.5
20260507011302 56 251 0.0 0.0 0.00 0.42 0.42 99 1002.4
20260507010802 56 231 0.0 0.0 0.00 0.42 0.42 99 1002.6
20260507010258 57 241 0.0 0.0 0.00 0.42 0.42 99 1002.6
20260507005755 57 233 0.0 0.0 0.00 0.42 0.42 99 1002.6
20260507005252 57 248 0.0 0.0 0.00 0.42 0.42 99 1002.4
20260507004748 57 236 0.0 0.0 0.00 0.42 0.42 99 1002.7
20260507004246 57 242 0.0 0.0 0.00 0.42 0.42 99 1002.5
20260507003742 57 251 0.0 0.0 0.00 0.42 0.42 99 1002.5
20260507003237 57 249 0.0 0.0 0.00 0.42 0.42 99 1002.4
20260507002734 57 230 0.0 0.0 0.00 0.42 0.42 99 1002.3
20260507002230 57 252 0.0 0.0 0.00 0.42 0.42 99 1002.5
20260507001727 57 245 0.0 0.0 0.00 0.42 0.42 99 1002.6
20260507001224 57 246 0.0 0.0 0.00 0.42 0.42 99 1002.4
20260507000720 57 220 0.0 1.0 0.00 0.42 0.42 99 1002.3
20260507000216 57 256 0.0 0.0 0.00 0.42 0.42 99 1002.5
20260506235713 57 260 1.0 2.0 0.00 0.42 0.42 99 1002.1
20260506235208 57 244 1.0 2.0 0.00 0.42 0.42 99 1002.4
20260506234706 57 198 0.0 0.0 0.00 0.42 0.42 99 1002.2
20260506234203 57 218 0.0 0.0 0.00 0.42 0.42 99 1002.0
20260506233700 57 220 0.0 0.0 0.00 0.42 0.42 99 1002.1
20260506233157 57 241 0.0 0.0 0.00 0.42 0.42 99 1002.3
20260506232653 57 169 0.0 0.0 0.00 0.42 0.42 99 1002.4
20260506232148 57 254 0.0 0.0 0.00 0.42 0.42 99 1002.3
20260506231645 57 237 0.0 0.0 0.00 0.42 0.42 99 1002.4
20260506231144 57 237 0.0 0.0 0.00 0.42 0.42 99 1002.3
20260506230640 57 219 0.0 0.0 0.00 0.42 0.42 99 1002.2
20260506230137 57 218 1.0 1.0 0.00 0.42 0.42 99 1002.5
20260506225634 57 234 0.0 0.0 0.00 0.42 0.42 99 1002.7
20260506225130 57 227 0.0 0.0 0.00 0.42 0.42 99 1002.5
20260506224627 57 231 0.0 0.0 0.00 0.42 0.42 99 1002.6
20260506224124 57 230 0.0 0.0 0.00 0.42 0.42 99 1002.5
20260506223620 57 231 0.0 0.0 0.00 0.42 0.42 99 1002.7